Total_Precipitation_Accumulation
1.44 1.84 2.02 2.15 2.47 2.71 2.88 2.86 3.02 3.31 3.54 3.93 3.92 4.10 4.54 4.89 5.05 5.17 5.13 5.05 4.96 4.92 4.76 4.60 4.63 4.46 4.26 4.04 3.90 3.81 3.70 3.38 3.18 3.05 2.67 2.15 1.84 1.71 1.61 1.62 1.62 1.55 1.58
1.33 1.78 2.02 2.35 2.59 2.73 2.98 3.12 3.21 3.61 4.10 4.65 5.18 5.57 5.91 5.92 6.04 6.00 5.86 5.55 5.35 5.21 5.00 4.96 4.82 4.57 4.38 4.14 3.94 3.82 3.70 3.40 3.27 3.23 3.14 2.50 2.02 1.58 1.27 1.35 1.41 1.39 1.44
1.43 1.66 1.92 2.24 2.52 2.74 3.01 3.19 3.48 4.06 4.87 5.39 5.87 6.44 6.76 6.49 6.23 5.94 5.85 5.74 5.66 5.54 5.35 5.27 4.98 4.73 4.44 4.10 3.83 3.65 3.54 3.42 3.34 3.21 3.28 2.83 2.26 1.80 1.43 1.23 1.18 1.25 1.38
1.47 1.66 1.90 2.18 2.48 2.83 2.96 3.15 3.70 4.40 5.05 5.60 6.22 6.82 7.10 7.16 6.96 6.38 5.89 5.46 5.17 4.93 4.80 4.75 4.56 4.34 4.03 3.79 3.53 3.39 3.28 3.37 3.21 3.11 2.95 2.74 2.45 2.17 1.80 1.44 1.26 1.24 1.27
1.42 1.59 1.81 2.02 2.16 2.51 2.98 3.30 3.86 4.52 5.16 5.88 6.61 7.04 7.29 7.31 6.94 6.13 5.35 4.82 4.49 4.20 3.95 3.88 3.77 3.61 3.40 3.20 3.11 3.08 2.99 2.95 2.83 2.72 2.67 2.65 2.60 2.32 2.01 1.68 1.41 1.32 1.29
1.31 1.36 1.58 1.74 2.03 2.39 2.78 3.26 3.57 4.16 4.84 5.44 6.00 6.19 6.35 6.30 5.90 5.46 4.98 4.56 4.02 3.53 3.16 3.01 2.91 2.78 2.67 2.65 2.64 2.64 2.59 2.57 2.54 2.49 2.39 2.31 2.33 2.21 2.10 1.82 1.58 1.53 1.42
1.27 1.49 1.76 1.73 1.98 2.27 2.66 3.09 3.48 3.85 4.37 4.89 5.37 5.61 5.75 5.64 5.15 4.69 4.25 3.82 3.31 2.91 2.60 2.41 2.35 2.26 2.21 2.21 2.29 2.33 2.26 2.20 2.22 2.20 2.13 2.09 2.06 2.00 1.98 2.01 1.85 1.59 1.35
1.36 1.46 1.60 1.67 1.93 2.14 2.39 2.78 3.12 3.49 3.73 3.96 4.32 4.55 4.68 4.56 4.21 3.72 3.24 2.92 2.63 2.34 2.16 2.02 1.93 1.86 1.78 1.76 1.85 1.95 2.00 1.95 1.97 1.98 2.04 1.99 1.91 1.86 1.80 1.84 1.91 1.84 1.63
1.20 1.29 1.44 1.57 1.75 2.04 2.39 2.66 2.79 2.99 3.20 3.40 3.46 3.45 3.54 3.45 3.18 2.87 2.56 2.27 2.00 1.75 1.64 1.57 1.51 1.46 1.44 1.48 1.59 1.65 1.63 1.62 1.68 1.77 1.86 1.87 1.87 1.87 1.81 1.82 1.88 1.97 1.92
1.20 1.21 1.30 1.45 1.54 1.64 1.97 2.29 2.35 2.47 2.57 2.66 2.70 2.62 2.65 2.53 2.46 2.29 2.05 1.78 1.62 1.44 1.34 1.28 1.25 1.24 1.22 1.25 1.28 1.35 1.39 1.36 1.39 1.50 1.62 1.70 1.75 1.85 1.88 1.95 1.97 1.98 1.99
1.34 1.30 1.31 1.31 1.40 1.51 1.66 1.90 2.10 2.13 2.17 2.30 2.28 2.15 2.17 2.15 2.11 1.99 1.83 1.68 1.61 1.50 1.34 1.22 1.23 1.21 1.16 1.12 1.13 1.15 1.20 1.26 1.28 1.30 1.39 1.47 1.52 1.63 1.70 1.76 1.77 1.86 1.91
1.32 1.26 1.21 1.14 1.20 1.37 1.48 1.60 1.80 1.87 1.89 1.96 2.03 2.07 2.04 1.95 1.87 1.69 1.55 1.42 1.29 1.19 1.12 1.06 1.08 1.07 1.02 1.01 0.97 0.92 0.94 0.99 1.04 1.10 1.17 1.23 1.27 1.35 1.37 1.47 1.52 1.55 1.62
1.44 1.33 1.22 1.14 1.17 1.28 1.35 1.43 1.57 1.77 1.79 1.73 1.73 1.83 1.82 1.71 1.60 1.48 1.41 1.30 1.16 1.10 1.08 1.04 1.01 0.99 0.94 0.88 0.84 0.82 0.79 0.75 0.79 0.87 0.93 1.01 1.07 1.09 1.08 1.13 1.17 1.26 1.35
1.52 1.32 1.26 1.20 1.22 1.28 1.29 1.34 1.45 1.59 1.69 1.70 1.72 1.70 1.65 1.58 1.55 1.39 1.20 1.11 1.02 1.05 1.10 1.04 0.97 0.88 0.82 0.78 0.79 0.83 0.80 0.75 0.72 0.73 0.77 0.79 0.81 0.81 0.83 0.84 0.90 1.02 1.23
1.41 1.26 1.25 1.32 1.29 1.26 1.24 1.26 1.38 1.45 1.65 1.72 1.66 1.61 1.57 1.53 1.53 1.46 1.29 1.13 1.01 0.94 0.97 0.93 0.88 0.82 0.74 0.70 0.72 0.72 0.72 0.70 0.65 0.62 0.61 0.59 0.61 0.65 0.64 0.63 0.72 0.89 1.11
1.29 1.22 1.22 1.30 1.26 1.22 1.17 1.12 1.22 1.29 1.43 1.56 1.54 1.46 1.42 1.47 1.45 1.42 1.29 1.16 1.05 0.96 0.94 0.91 0.83 0.75 0.63 0.65 0.63 0.56 0.57 0.61 0.62 0.59 0.52 0.46 0.46 0.47 0.50 0.53 0.60 0.72 0.85
1.47 1.49 1.52 1.50 1.39 1.27 1.18 1.18 1.25 1.32 1.38 1.43 1.37 1.37 1.37 1.33 1.30 1.16 1.09 1.11 1.09 0.95 0.87 0.81 0.73 0.68 0.64 0.57 0.50 0.50 0.55 0.60 0.63 0.63 0.62 0.51 0.41 0.47 0.51 0.53 0.56 0.60 0.64
1.78 1.79 1.74 1.60 1.46 1.34 1.29 1.27 1.25 1.33 1.41 1.39 1.31 1.24 1.25 1.20 1.15 1.11 1.06 1.04 1.01 0.90 0.86 0.81 0.73 0.65 0.60 0.58 0.54 0.53 0.53 0.62 0.65 0.64 0.64 0.64 0.60 0.52 0.51 0.49 0.54 0.61 0.68
1.76 1.67 1.60 1.52 1.43 1.32 1.26 1.20 1.19 1.19 1.22 1.18 1.14 1.05 1.06 1.12 1.14 1.12 1.12 1.05 0.95 0.86 0.79 0.77 0.73 0.69 0.63 0.57 0.52 0.53 0.57 0.61 0.58 0.51 0.51 0.51 0.52 0.50 0.49 0.52 0.59 0.63 0.69
1.44 1.46 1.44 1.37 1.29 1.20 1.11 1.06 1.09 1.09 1.06 1.05 1.04 0.95 0.95 1.02 1.08 1.09 1.07 0.94 0.84 0.80 0.70 0.69 0.71 0.70 0.67 0.56 0.48 0.49 0.49 0.53 0.50 0.47 0.45 0.42 0.38 0.38 0.38 0.46 0.62 0.73 0.69
1.26 1.27 1.37 1.39 1.22 1.02 0.96 1.00 1.00 1.00 0.89 0.86 0.93 0.96 0.95 0.95 0.95 0.96 0.97 0.89 0.77 0.75 0.72 0.72 0.72 0.70 0.63 0.53 0.45 0.45 0.43 0.44 0.46 0.49 0.48 0.45 0.36 0.32 0.33 0.40 0.53 0.59 0.57
1.12 1.13 1.25 1.20 1.02 0.89 0.91 0.97 0.94 0.85 0.80 0.88 0.98 0.98 0.95 0.85 0.84 0.94 0.97 0.87 0.77 0.73 0.73 0.73 0.71 0.66 0.62 0.54 0.47 0.45 0.43 0.41 0.43 0.45 0.43 0.39 0.36 0.31 0.33 0.36 0.41 0.44 0.53
0.98 0.99 1.03 1.01 0.95 0.91 0.96 0.99 0.93 0.81 0.84 0.93 0.97 0.97 0.91 0.88 0.86 0.89 0.89 0.83 0.75 0.69 0.67 0.67 0.66 0.59 0.54 0.49 0.44 0.43 0.40 0.38 0.38 0.39 0.37 0.37 0.39 0.40 0.45 0.46 0.44 0.51 0.69
0.86 0.86 0.91 0.92 0.89 0.84 0.84 0.84 0.76 0.75 0.84 0.93 0.90 0.90 0.93 0.93 0.85 0.78 0.73 0.70 0.66 0.62 0.59 0.58 0.56 0.49 0.47 0.41 0.34 0.35 0.36 0.34 0.36 0.36 0.41 0.50 0.56 0.57 0.58 0.61 0.68 0.72 0.75
0.83 0.85 0.90 0.91 0.82 0.77 0.72 0.71 0.72 0.76 0.86 0.85 0.79 0.79 0.84 0.83 0.79 0.67 0.58 0.54 0.47 0.39 0.39 0.39 0.38 0.38 0.35 0.32 0.31 0.32 0.34 0.30 0.30 0.34 0.48 0.66 0.72 0.72 0.69 0.66 0.67 0.71 0.70
0.77 0.80 0.78 0.79 0.75 0.67 0.64 0.66 0.69 0.68 0.76 0.75 0.69 0.67 0.70 0.70 0.64 0.58 0.50 0.43 0.32 0.28 0.23 0.21 0.22 0.24 0.27 0.26 0.23 0.27 0.30 0.28 0.31 0.37 0.59 0.71 0.73 0.74 0.67 0.61 0.58 0.58 0.58